^^
Franklin Riverside ( IFRANKLI3 Nearby PWS ) Historical Data
 
Daily Summary for October 17, 2018 Units:  Metric    English   Both
« Previous Day
Next Day »
Daily Weekly Monthly Yearly Custom
  Current: High: Low: Average:
Temperature: 15.2 °C 16.0 °C 15.1 °C 15.5 °C
Dew Point: 14.3 °C 14.5 °C 13.9 °C 14.2 °C
Humidity: 94% 94% 88% 92%
Wind Speed: 0.0km/h 0.0km/h 0.0km/h 0km/h
Wind Gust: 0.0km/h 0.0km/h - -
WindCalm - - North
Pressure: 1014.4 hPa 1015.5 hPa 1014.1 hPa -
Precipitation: 0.0 mm      
Historical Graphs
 
 
Tabular Data for October 17, 2018
Time Temperature Dew Point Pressure Wind Wind Speed Wind Gust Humidity Rainfall Rate (Hourly) solar
00:04 16.0 °C 14.4 °C 1015.5 hPa Calm     90% 0.0 mm 0.00 W/m2
00:09 15.9 °C 14.1 °C 1015.1 hPa Calm     89% 0.0 mm 0.00 W/m2
00:14 15.9 °C 13.9 °C 1015.1 hPa Calm     88% 0.0 mm 0.00 W/m2
00:19 15.9 °C 13.9 °C 1015.1 hPa Calm     88% 0.0 mm 0.00 W/m2
00:24 15.9 °C 14.1 °C 1015.1 hPa Calm     89% 0.0 mm 0.00 W/m2
00:29 15.9 °C 14.1 °C 1015.1 hPa Calm     89% 0.0 mm 0.00 W/m2
00:34 15.9 °C 14.1 °C 1015.1 hPa Calm     89% 0.0 mm 0.00 W/m2
00:39 15.9 °C 14.3 °C 1015.1 hPa Calm     90% 0.0 mm 0.00 W/m2
00:44 15.9 °C 14.3 °C 1015.1 hPa Calm     90% 0.0 mm 0.00 W/m2
00:49 15.9 °C 14.5 °C 1015.1 hPa Calm     91% 0.0 mm 0.00 W/m2
00:54 15.8 °C 14.5 °C 1015.1 hPa Calm     92% 0.0 mm 0.00 W/m2
00:59 15.8 °C 14.5 °C 1015.1 hPa Calm     92% 0.0 mm 0.00 W/m2
01:05 15.7 °C 14.4 °C 1015.1 hPa Calm     92% 0.0 mm 0.00 W/m2
01:09 15.7 °C 14.4 °C 1015.1 hPa Calm     92% 0.0 mm 0.00 W/m2
01:14 15.7 °C 14.4 °C 1015.1 hPa Calm     92% 0.0 mm 0.00 W/m2
01:19 15.6 °C 14.3 °C 1015.1 hPa Calm     92% 0.0 mm 0.00 W/m2
01:24 15.6 °C 14.3 °C 1015.1 hPa Calm     92% 0.0 mm 0.00 W/m2
01:29 15.6 °C 14.3 °C 1014.8 hPa Calm     92% 0.0 mm 0.00 W/m2
01:34 15.5 °C 14.2 °C 1014.8 hPa Calm     92% 0.0 mm 0.00 W/m2
01:39 15.5 °C 14.2 °C 1014.8 hPa Calm     92% 0.0 mm 0.00 W/m2
01:44 15.5 °C 14.2 °C 1014.8 hPa Calm     92% 0.0 mm 0.00 W/m2
01:49 15.5 °C 14.2 °C 1014.4 hPa Calm     92% 0.0 mm 0.00 W/m2
01:54 15.5 °C 14.2 °C 1014.8 hPa Calm     92% 0.0 mm 0.00 W/m2
01:59 15.5 °C 14.2 °C 1014.8 hPa Calm     92% 0.0 mm 0.00 W/m2
02:05 15.5 °C 14.4 °C 1014.8 hPa Calm     93% 0.0 mm 0.00 W/m2
02:09 15.4 °C 14.3 °C 1014.4 hPa Calm     93% 0.0 mm 0.00 W/m2
02:14 15.4 °C 14.3 °C 1014.8 hPa Calm     93% 0.0 mm 0.00 W/m2
02:19 15.4 °C 14.3 °C 1014.4 hPa Calm     93% 0.0 mm 0.00 W/m2
02:24 15.3 °C 14.2 °C 1014.4 hPa Calm     93% 0.0 mm 0.00 W/m2
02:29 15.3 °C 14.2 °C 1014.4 hPa Calm     93% 0.0 mm 0.00 W/m2
02:34 15.2 °C 14.1 °C 1014.4 hPa Calm     93% 0.0 mm 0.00 W/m2
02:39 15.2 °C 14.1 °C 1014.4 hPa Calm     93% 0.0 mm 0.00 W/m2
02:44 15.2 °C 14.1 °C 1014.4 hPa Calm     93% 0.0 mm 0.00 W/m2
02:49 15.1 °C 14.0 °C 1014.4 hPa Calm     93% 0.0 mm 0.00 W/m2
02:54 15.1 °C 14.0 °C 1014.4 hPa Calm     93% 0.0 mm 0.00 W/m2
02:59 15.1 °C 14.0 °C 1014.4 hPa Calm     93% 0.0 mm 0.00 W/m2
03:04 15.1 °C 14.0 °C 1014.4 hPa Calm     93% 0.0 mm 0.00 W/m2
03:09 15.1 °C 14.2 °C 1014.4 hPa Calm     94% 0.0 mm 0.00 W/m2
03:14 15.1 °C 14.2 °C 1014.1 hPa Calm     94% 0.0 mm 0.00 W/m2
03:19 15.1 °C 14.0 °C 1014.4 hPa Calm     93% 0.0 mm 0.00 W/m2
03:25 15.2 °C 14.3 °C 1014.4 hPa Calm     94% 0.0 mm 0.00 W/m2
Franklin Riverside, Huon Valley, TAS
Compliments of Weather Underground - 2 mb